CAPE
1 3 3 1 0 268 1259 1424 1795 1462 1555 1628 1723 1779 1708 1376 1078 951 1121 911 835 685
4 3 4 3 1 21 870 1404 2038 1571 1406 1492 1583 1629 1623 1412 1424 1208 424 874 894 631
4 3 3 4 4 1 1039 1379 1829 1821 1485 1413 1477 1470 1512 1519 1575 1308 1047 827 617 447
2 3 4 6 4 270 1213 1232 1367 1586 1415 1308 1333 1294 1288 1265 1263 1004 779 611 485 421
2 4 7 6 257 578 742 1080 1217 1461 1285 1164 1171 1063 1055 1167 1051 768 590 457 379 375
3 7 9 7 0 1 482 746 815 1193 1304 1111 895 842 1033 1154 827 444 377 341 297 233
1 5 9 10 13 4 1 284 628 855 814 766 690 645 733 675 539 141 136 184 125 69
3 2 3 8 9 10 9 8 4 57 134 332 428 437 473 383 309 78 10 0 0 0
3 3 1 4 6 8 10 13 12 11 7 4 1 0 41 57 4 0 0 0 2 4
2 4 3 5 1 2 6 6 8 5 7 13 12 5 0 0 1 2 3 4 5 7
0 1 2 3 4 5 4 3 3 5 4 0 1 6 9 11 10 10 10 6 7 8
0 0 1 2 1 1 5 5 5 3 2 5 1 1 1 3 8 8 8 6 5 7
0 1 1 0 0 0 0 1 2 2 1 3 5 4 2 0 2 2 4 3 3 6
1 0 0 1 0 0 0 0 0 1 0 1 2 3 5 4 2 3 4 7 4 1
CIN
-0 -0 -0 -0 -0 -86 -6 -0 -8 -59 -22 -11 -22 -43 -53 -79 -37 -40 -1 -40 -25 -23
-0 -0 -0 -0 -0 -33 -26 -4 -1 -36 -30 -12 -18 -20 -29 -45 -39 -6 -123 -6 -5 -11
-0 -0 -0 -0 -0 -0 -21 -3 -1 -0 -30 -20 -15 -11 -11 -9 -6 -17 -20 -3 -5 -23
-0 -0 -0 -0 -0 -130 -3 -4 -5 -6 -30 -28 -19 -22 -17 -15 -5 -26 -26 -23 -18 -44
-0 -0 -0 -0 -74 -14 -9 -5 -6 -0 -12 -22 -26 -44 -32 -13 -16 -37 -16 -9 -13 -26
-0 -0 -0 -0 -0 -14 -5 -3 -14 -2 -1 -7 -29 -58 -37 -4 -45 -87 -77 -71 -17 -9
-0 -0 -0 -0 -0 -0 -0 -20 -6 -7 -10 -23 -28 -51 -27 -18 -14 -113 -121 -53 -5 -27
-0 -0 -0 -0 -0 -0 -0 -0 -0 -15 -171 -88 -49 -49 -18 -27 -31 -113 -69 -3 -0 -0
-0 -0 -0 -0 -0 -0 -0 -0 -0 -0 -0 -0 -0 -0 -111 -99 -144 -0 -0 -0 -0 -0
-0 -0 -0 -0 -0 -0 -0 -0 -0 -0 -0 -0 -0 -0 -0 -0 -0 -0 -0 -0 -0 -0
-0 -0 -0 -0 -0 -0 -0 -0 -0 -0 -0 -0 -0 -0 -0 -0 -0 -0 -0 -0 -0 -0
-0 -0 -0 -0 -0 -0 -0 -0 -0 -0 -0 -0 -0 -0 -0 -0 -0 -0 -0 -0 -0 -0
-0 -0 -0 -0 -0 -0 -0 -0 -0 -0 -0 -0 -0 -0 -0 -0 -0 -0 -0 -0 -0 -0
-0 -0 -0 -0 -0 -0 -0 -0 -0 -0 -0 -0 -0 -0 -0 -0 -0 -0 -0 -0 -0 -0
Wind_Speed
46 46 47 47 47 46 44 39 35 32 34 34 33 31 30 29 25 24 24 21 28 27
45 46 46 48 49 49 48 41 35 31 30 34 34 31 30 31 30 29 24 21 31 30
45 46 44 47 48 49 46 40 34 31 28 31 31 31 30 30 28 29 28 26 26 30
42 42 42 47 45 49 46 39 35 31 28 28 29 29 28 28 26 26 26 27 30 29
39 37 35 36 35 40 45 39 35 30 29 29 31 31 30 26 25 24 23 22 20 30
32 32 32 32 33 29 35 39 38 32 29 30 29 31 30 27 25 22 23 25 24 28
29 26 25 25 23 25 20 26 26 27 29 27 26 25 27 26 27 24 22 19 21 25
29 28 26 23 18 16 15 17 19 21 24 24 24 26 26 23 23 21 19 19 19 20
24 27 24 20 18 17 15 15 14 15 18 21 23 25 23 20 19 18 17 20 18 16
25 25 23 19 18 17 14 13 14 15 17 18 22 20 15 15 17 17 17 18 18 18
26 24 23 18 18 18 14 13 15 17 17 14 17 11 9 10 12 12 12 15 16 18
27 25 26 23 21 19 17 15 16 15 13 11 11 12 7 9 10 10 9 10 12 14
28 27 26 21 22 20 21 20 22 19 12 14 10 11 5 6 4 4 7 9 10 12
29 29 28 25 25 25 26 24 24 20 18 17 15 13 12 10 9 10 10 11 10 11
Wind_Direction
290 284 278 273 271 268 265 262 260 256 256 251 246 246 247 249 249 241 240 249 261 269
295 286 278 273 268 266 262 260 257 253 250 250 247 245 245 250 252 253 251 257 260 265
295 287 281 272 267 263 260 252 251 249 248 248 244 244 243 248 250 254 259 263 263 265
293 285 276 266 264 258 255 248 248 244 248 246 242 241 242 241 244 248 254 261 263 263
284 285 288 286 275 262 249 247 247 245 248 250 245 241 241 235 239 242 252 259 262 261
293 297 295 293 283 279 253 247 246 245 249 249 247 241 237 236 234 238 248 265 261 262
304 291 310 312 301 282 272 260 252 248 251 249 246 242 237 237 242 246 251 252 263 266
320 320 315 307 321 309 292 282 267 257 252 250 247 246 239 235 235 239 245 257 261 269
324 338 336 327 317 315 302 298 296 278 265 261 253 248 241 238 235 238 248 256 262 270
342 343 339 332 342 338 303 320 302 291 276 269 266 257 231 230 238 245 253 256 265 271
357 359 357 353 352 346 342 335 316 307 297 283 273 255 251 224 238 247 254 262 269 275
3 4 7 6 4 1 2 359 355 337 320 311 295 284 286 253 252 256 257 278 282 286
12 12 12 9 10 9 13 11 17 18 359 6 359 357 343 349 292 293 288 285 299 316
15 18 17 16 16 17 18 17 18 13 8 11 8 4 2 359 341 318 309 307 317 317